カタログに戻る

THOR ABLESTAR DEB

運用中PO
NORAD 1425·DEBRIS·🇺🇸 United States

打ち上げ Jun 24, 1965 から Vandenberg Space Force Base

Loading…

次のパス (今後24時間)

TLE

最新Source: Space-Track

元期: Sep 14, 2026, 13:24 UTC

1 01425U 65048C   26257.55885774  .00000025  00000-0  25401-4 0  9999
2 01425  89.8706 283.7949 0072682 328.8499 185.6354 13.48952514 12458

AllMySatでTHOR ABLESTAR DEBをリアルタイム追跡

Download on the App Store